H1 CPF 2 NER 2022 2 27 9 058 01 glonass138 H2 1805301 9138 43508 2022 2 27 0 0 0 2022 3 2 23 45 0 900 1 1 0 0 0 1 H9 10 0 59637 0.00000 0 21863720.547 -13145060.825 -721248.569 10 0 59637 900.00000 0 21683300.593 -13229688.392 2495580.353 10 0 59637 1800.00000 0 21180077.745 -13069396.260 5664014.835 10 0 59637 2700.00000 0 20396368.716 -12627002.229 8722625.994 10 0 59637 3600.00000 0 19382921.256 -11875696.256 11612131.558 10 0 59637 4500.00000 0 18196691.339 -10800404.722 14276538.860 10 0 59637 5400.00000 0 16898380.665 -9398670.421 16664222.974 10 0 59637 6300.00000 0 15549837.755 -7681010.754 18728919.725 10 0 59637 7200.00000 0 14211431.368 -5670738.407 20430615.018 10 0 59637 8100.00000 0 12939505.729 -3403250.937 21736314.093 10 0 59637 9000.00000 0 11784023.454 -924817.564 22620676.612 10 0 59637 9900.00000 0 10786494.098 1709087.753 23066505.898 10 0 59637 10800.00000 0 9978274.305 4435839.342 23065083.334 10 0 59637 11700.00000 0 9379310.098 7188015.467 22616341.600 10 0 59637 12600.00000 0 8997373.664 9895960.408 21728873.189 10 0 59637 13500.00000 0 8827826.496 12490448.293 20419773.526 10 0 59637 14400.00000 0 8853919.006 14905339.408 18714320.850 10 0 59637 15300.00000 0 9047614.470 17080119.587 16645498.016 10 0 59637 16200.00000 0 9370903.227 18962217.741 14253364.258 10 0 59637 17100.00000 0 9777552.395 20509005.302 11584287.868 10 0 59637 18000.00000 0 10215217.869 21689394.023 8690053.677 10 0 59637 18900.00000 0 10627829.704 22484965.119 5626861.857 10 0 59637 19800.00000 0 10958150.029 22890582.018 2454236.993 10 0 59637 20700.00000 0 11150394.859 22914460.541 -766131.286 10 0 59637 21600.00000 0 11152807.993 22577693.279 -3971593.296 10 0 59637 22500.00000 0 10920076.827 21913248.020 -7099765.750 10 0 59637 23400.00000 0 10415486.351 20964482.543 -10089754.783 10 0 59637 24300.00000 0 9612718.542 19783238.809 -12883350.679 10 0 59637 25200.00000 0 8497219.406 18427597.506 -15426169.971 10 0 59637 26100.00000 0 7067074.352 16959388.461 -17668721.645 10 0 59637 27000.00000 0 5333353.551 15441562.662 -19567375.966 10 0 59637 27900.00000 0 3319911.503 13935537.396 -21085216.640 10 0 59637 28800.00000 0 1062648.313 12498626.852 -22192759.523 10 0 59637 29700.00000 0 -1391737.074 11181666.579 -22868524.067 10 0 59637 30600.00000 0 -3987450.066 10026931.596 -23099446.792 10 0 59637 31500.00000 0 -6661689.175 9066435.236 -22881129.244 10 0 59637 32400.00000 0 -9347033.499 8320679.381 -22217916.293 10 0 59637 33300.00000 0 -11974029.735 7797907.491 -21122803.851 10 0 59637 34200.00000 0 -14473871.216 7493890.526 -19617178.385 10 0 59637 35100.00000 0 -16781057.877 7392253.360 -17730393.771 10 0 59637 36000.00000 0 -18835926.964 7465326.485 -15499194.057 10 0 59637 36900.00000 0 -20586949.664 7675485.840 -12966993.650 10 0 59637 37800.00000 0 -21992698.821 7976923.096 -10183029.134 10 0 59637 38700.00000 0 -23023406.627 8317770.712 -7201399.292 10 0 59637 39600.00000 0 -23662048.300 8642491.303 -4080012.235 10 0 59637 40500.00000 0 -23904907.651 8894429.824 -879460.193 10 0 59637 41400.00000 0 -23761602.138 9018420.375 2338156.092 10 0 59637 42300.00000 0 -23254567.491 8963337.278 5510430.328 10 0 59637 43200.00000 0 -22418024.659 8684482.552 8575857.712 10 0 59637 44100.00000 0 -21296473.268 8145708.929 11475022.700 10 0 59637 45000.00000 0 -19942775.433 7321188.805 14151744.696 10 0 59637 45900.00000 0 -18415910.632 6196754.382 16554159.887 10 0 59637 46800.00000 0 -16778495.734 4770752.251 18635718.896 10 0 59637 47700.00000 0 -15094173.778 3054375.921 20356081.592 10 0 59637 48600.00000 0 -13424980.236 1071461.408 21681892.573 10 0 59637 49500.00000 0 -11828796.075 -1142246.804 22587423.100 10 0 59637 50400.00000 0 -10356993.237 -3540330.272 23055067.702 10 0 59637 51300.00000 0 -9052369.931 -6067381.832 23075686.297 10 0 59637 52200.00000 0 -7947461.150 -8661073.336 22648785.425 10 0 59637 53100.00000 0 -7063294.343 -11254521.635 21782534.851 10 0 59637 54000.00000 0 -6408641.763 -13778856.288 20493618.754 10 0 59637 54900.00000 0 -5979800.580 -16165883.767 18806923.513 10 0 59637 55800.00000 0 -5760909.989 -18350738.471 16755067.092 10 0 59637 56700.00000 0 -5724792.203 -20274411.060 14377777.944 10 0 59637 57600.00000 0 -5834282.271 -21886049.071 11721134.230 10 0 59637 58500.00000 0 -6043991.027 -23144933.753 8836677.125 10 0 59637 59400.00000 0 -6302426.962 -24022050.113 5780414.551 10 0 59637 60300.00000 0 -6554387.319 -24501183.875 2611734.225 10 0 59637 61200.00000 0 -6743516.911 -24579498.581 -607752.860 10 0 59637 62100.00000 0 -6814925.616 -24267568.029 -3815415.716 10 0 59637 63000.00000 0 -6717752.590 -23588862.130 -6948829.350 10 0 59637 63900.00000 0 -6407567.262 -22578707.634 -9946998.537 10 0 59637 64800.00000 0 -5848503.871 -21282767.514 -12751554.525 10 0 59637 65700.00000 0 -5015037.546 -19755103.418 -15307900.293 10 0 59637 66600.00000 0 -3893325.265 -18055903.324 -17566280.988 10 0 59637 67500.00000 0 -2482053.576 -16248970.800 -19482758.006 10 0 59637 68400.00000 0 -792755.999 -14399082.111 -21020067.288 10 0 59637 69300.00000 0 1150414.279 -12569322.922 -22148344.916 10 0 59637 70200.00000 0 3311447.748 -10818516.763 -22845706.067 10 0 59637 71100.00000 0 5643746.639 -9198853.178 -23098666.442 10 0 59637 72000.00000 0 8091845.016 -7753814.702 -22902398.497 10 0 59637 72900.00000 0 10593509.442 -6516488.839 -22260818.132 10 0 59637 73800.00000 0 13082132.788 -5508334.649 -21186500.774 10 0 59637 74700.00000 0 15489321.562 -4738454.333 -19700429.058 10 0 59637 75600.00000 0 17747569.227 -4203398.735 -17831577.505 10 0 59637 76500.00000 0 19792904.422 -3887513.250 -15616342.591 10 0 59637 77400.00000 0 21567404.088 -3763807.910 -13097829.629 10 0 59637 78300.00000 0 23021467.239 -3795313.455 -10325010.498 10 0 59637 79200.00000 0 24115755.173 -3936864.846 -7351768.751 10 0 59637 80100.00000 0 24822717.820 -4137235.831 -4235850.839 10 0 59637 81000.00000 0 25127643.323 -4341533.546 -1037743.979 10 0 59637 81900.00000 0 25029187.900 -4493751.327 2180497.476 10 0 59637 82800.00000 0 24539364.734 -4539371.435 5356454.170 10 0 59637 83700.00000 0 23682993.279 -4427907.503 8428549.098 10 0 59637 84600.00000 0 22496632.819 -4115279.135 11337236.865 10 0 59637 85500.00000 0 21027045.561 -3565918.429 14026151.947 10 0 59638 0.00000 0 19329254.108 -2754519.510 16443193.971 10 0 59638 900.00000 0 17464273.688 -1667356.719 18541530.831 10 0 59638 1800.00000 0 15496616.089 -303116.725 20280497.667 10 0 59638 2700.00000 0 13491665.979 1326792.533 21626379.490 10 0 59638 3600.00000 0 11513040.604 3198469.036 22553059.757 10 0 59638 4500.00000 0 9620041.207 5276272.198 23042524.342 10 0 59638 5400.00000 0 7865301.540 7514076.722 23085211.421 10 0 59638 6300.00000 0 6292730.453 9856974.341 22680200.693 10 0 59638 7200.00000 0 4935833.466 12243354.360 21835238.097 10 0 59638 8100.00000 0 3816482.574 14607278.234 20566595.093 10 0 59638 9000.00000 0 2944185.116 16881051.008 18898764.375 10 0 59638 9900.00000 0 2315881.984 18997883.805 16863996.895 10 0 59638 10800.00000 0 1916283.524 20894537.397 14501687.937 10 0 59638 11700.00000 0 1718729.017 22513837.086 11857622.932 10 0 59638 12600.00000 0 1686533.747 23806953.843 8983096.601 10 0 59638 13500.00000 0 1774766.888 24735355.939 5933921.674 10 0 59638 14400.00000 0 1932385.078 25272348.642 2769345.946 10 0 59638 15300.00000 0 2104631.153 25404136.465 -449101.331 10 0 59638 16200.00000 0 2235595.883 25130362.472 -3658810.964 10 0 59638 17100.00000 0 2270833.235 24464101.117 -6797319.237 10 0 59638 18000.00000 0 2159917.192 23431304.301 -9803532.376 10 0 59638 18900.00000 0 1858830.320 22069723.629 -12618925.149 10 0 59638 19800.00000 0 1332081.398 20427354.189 -15188689.221 10 0 59638 20700.00000 0 554460.958 18560465.585 -17462807.805 10 0 59638 21600.00000 0 -487640.959 16531303.500 -19397034.993 10 0 59638 22500.00000 0 -1795411.782 14405558.855 -20953760.192 10 0 59638 23400.00000 0 -3357323.896 12249711.407 -22102740.621 10 0 59638 24300.00000 0 -5149385.856 10128359.486 -22821687.774 10 0 59638 25200.00000 0 -7135927.475 8101647.887 -23096696.801 10 0 59638 26100.00000 0 -9270886.331 6222901.343 -22922510.964 10 0 59638 27000.00000 0 -11499542.192 4536562.017 -22302616.695 10 0 59638 27900.00000 0 -13760627.127 3076516.204 -21249168.014 10 0 59638 28800.00000 0 -15988723.266 1864878.994 -19782742.373 10 0 59638 29700.00000 0 -18116848.322 911286.080 -17931933.167 10 0 59638 30600.00000 0 -20079121.174 212720.567 -15732787.177 10 0 59638 31500.00000 0 -21813396.412 -246119.815 -13228098.210 10 0 59638 32400.00000 0 -23263758.198 -491932.402 -10466570.850 10 0 59638 33300.00000 0 -24382769.686 -561435.383 -7501870.700 10 0 59638 34200.00000 0 -25133384.378 -499569.063 -4391579.792 10 0 59638 35100.00000 0 -25490440.114 -357349.722 -1196077.564 10 0 59638 36000.00000 0 -25441673.805 -189467.673 2022630.763 10 0 59638 36900.00000 0 -24988215.064 -51731.589 5202115.474 10 0 59638 37800.00000 0 -24144538.780 1532.418 8280730.013 10 0 59638 38700.00000 0 -22937879.162 -79983.076 11198801.686 10 0 59638 39600.00000 0 -21407130.280 -340202.678 13899782.473 10 0 59638 40500.00000 0 -19601279.332 -814575.802 16331338.094 10 0 59638 41400.00000 0 -17577438.138 -1528344.339 18446354.828 10 0 59638 42300.00000 0 -15398554.846 -2495243.460 20203845.223 10 0 59638 43200.00000 0 -13130900.776 -3716690.627 21569736.014 10 0 59638 44100.00000 0 -10841436.340 -5181497.572 22517523.768 10 0 59638 45000.00000 0 -8595164.816 -6866118.361 23028786.228 10 0 59638 45900.00000 0 -6452582.998 -8735424.529 23093539.973 10 0 59638 46800.00000 0 -4467333.631 -10743976.565 22710437.655 10 0 59638 47700.00000 0 -2684156.314 -12837740.422 21886800.884 10 0 59638 48600.00000 0 -1137221.200 -14956179.263 20638487.621 10 0 59638 49500.00000 0 151085.842 -17034634.995 18989595.861 10 0 59638 50400.00000 0 1170876.389 -19006901.603 16972008.282 10 0 59638 51300.00000 0 1924941.518 -20807884.069 14624785.515 10 0 59638 52200.00000 0 2428395.318 -22376232.441 11993418.539 10 0 59638 53100.00000 0 2707794.859 -23656841.042 9128953.691 10 0 59638 54000.00000 0 2799773.748 -24603107.887 6087006.386 10 0 59638 54900.00000 0 2749247.032 -25178858.910 2926682.190 10 0 59638 55800.00000 0 2607263.565 -25359855.203 -290573.827 10 0 59638 56700.00000 0 2428597.233 -25134818.816 -3502176.823 10 0 59638 57600.00000 0 2269179.874 -24505932.868 -6645627.028 10 0 59638 58500.00000 0 2183485.689 -23488793.890 -9659734.853 10 0 59638 59400.00000 0 2221979.315 -22111817.724 -12485821.367 10 0 59638 60300.00000 0 2428737.064 -20415123.472 -15068869.690 10 0 59638 61200.00000 0 2839343.530 -18448942.382 -17358603.800 10 0 59638 62100.00000 0 3479153.902 -16271618.637 -19310473.019 10 0 59638 63000.00000 0 4361996.706 -13947286.301 -20886522.499 10 0 59638 63900.00000 0 5489372.732 -11543320.278 -22056132.544 10 0 59638 64800.00000 0 6850184.772 -9127668.352 -22796612.516 10 0 59638 65700.00000 0 8421010.172 -6766176.052 -23093638.133 10 0 59638 66600.00000 0 10166905.167 -4520016.119 -22941524.158 10 0 59638 67500.00000 0 12042707.585 -2443329.421 -22343327.823 10 0 59638 68400.00000 0 13994783.503 -581174.964 -21310781.611 10 0 59638 69300.00000 0 15963144.840 1032126.540 -19864057.268 10 0 59638 70200.00000 0 17883849.363 2374187.925 -18031366.158 10 0 59638 71100.00000 0 19691582.839 3435241.474 -15848404.056 10 0 59638 72000.00000 0 21322315.389 4218288.651 -13357651.527 10 0 59638 72900.00000 0 22715921.094 4738709.418 -10607543.682 10 0 59638 73800.00000 0 23818651.459 5023349.506 -7651525.572 10 0 59638 74700.00000 0 24585359.437 5109125.758 -4547011.811 10 0 59638 75600.00000 0 24981381.224 5041209.906 -1354270.752 10 0 59638 76500.00000 0 24983997.407 4870868.585 1864745.037 10 0 59638 77400.00000 0 24583412.638 4653051.721 5047599.080 10 0 59638 78300.00000 0 23783213.237 4443831.755 8132578.829 10 0 59638 79200.00000 0 22600283.911 4297802.235 11059887.698 10 0 59638 80100.00000 0 21064187.338 4265545.742 13772798.327 10 0 59638 81000.00000 0 19216032.692 4391277.983 16218745.169 10 0 59638 81900.00000 0 17106880.228 4710767.369 18350335.819 10 0 59638 82800.00000 0 14795748.235 5249617.641 20126262.130 10 0 59638 83700.00000 0 12347304.828 6021985.951 21512094.298 10 0 59638 84600.00000 0 9829339.821 7029790.650 22480943.341 10 0 59638 85500.00000 0 7310120.886 8262442.665 23013979.801 10 0 59639 0.00000 0 4855742.916 9697112.613 23100799.157 10 0 59639 900.00000 0 2527578.170 11299524.624 22739627.067 10 0 59639 1800.00000 0 379935.288 13025243.195 21937360.334 10 0 59639 2700.00000 0 -1541981.044 14821403.618 20709442.498 10 0 59639 3600.00000 0 -3203722.495 16628813.444 19079575.455 10 0 59639 4500.00000 0 -4582794.736 18384339.395 17079271.792 10 0 59639 5400.00000 0 -5669350.635 20023481.079 14747255.297 10 0 59639 6300.00000 0 -6466350.382 21483024.627 12128720.000 10 0 59639 7200.00000 0 -6989181.935 22703665.434 9274461.105 10 0 59639 8100.00000 0 -7264757.912 23632489.882 6239893.775 10 0 59639 9000.00000 0 -7330127.108 24225211.259 3083978.275 10 0 59639 9900.00000 0 -7230659.473 24448064.908 -131927.664 10 0 59639 10800.00000 0 -7017881.737 24279281.656 -3345266.736 10 0 59639 11700.00000 0 -6747055.955 23710076.182 -6493506.250 10 0 59639 12600.00000 0 -6474604.459 22745107.413 -9515363.813 10 0 59639 13500.00000 0 -6255491.460 21402390.483 -12352009.609 10 0 59639 14400.00000 0 -6140673.510 19712663.085 -14948220.762 10 0 59639 15300.00000 0 -6174728.130 17718232.367 -17253464.257 10 0 59639 16200.00000 0 -6393762.236 15471350.612 -19222886.547 10 0 59639 17100.00000 0 -6823689.961 13032187.826 -20818190.103 10 0 59639 18000.00000 0 -7478953.556 10466486.453 -22008379.554 10 0 59639 18900.00000 0 -8361742.043 7842996.576 -22770363.043 10 0 59639 19800.00000 0 -9461741.064 5230798.894 -23089397.429 10 0 59639 20700.00000 0 -10756424.752 2696627.308 -22959369.187 10 0 59639 21600.00000 0 -12211877.470 302302.411 -22382906.178 10 0 59639 22500.00000 0 -13784111.009 -1897617.758 -21371318.764 10 0 59639 23400.00000 0 -15420821.892 -3857872.696 -19944371.976 10 0 59639 24300.00000 0 -17063515.056 -5544136.668 -18129893.725 10 0 59639 25200.00000 0 -18649904.863 -6934191.531 -15963226.983 10 0 59639 26100.00000 0 -20116492.709 -8018587.916 -13486536.962 10 0 59639 27000.00000 0 -21401213.243 -8800769.167 -10747986.927 10 0 59639 27900.00000 0 -22446038.278 -9296654.848 -7800798.823 10 0 59639 28800.00000 0 -23199429.292 -9533703.197 -4702217.167 10 0 59639 29700.00000 0 -23618535.812 -9549493.760 -1512396.442 10 0 59639 30600.00000 0 -23671047.636 -9389891.368 1706766.274 10 0 59639 31500.00000 0 -23336623.413 -9106870.058 4892830.633 10 0 59639 32400.00000 0 -22607835.886 -8756089.608 7984020.996 10 0 59639 33300.00000 0 -21490594.311 -8394327.521 10920419.759 10 0 59639 34200.00000 0 -20004026.479 -8076875.045 13645123.011 10 0 59639 35100.00000 0 -18179825.185 -7855007.132 16105336.569 10 0 59639 36000.00000 0 -16061086.206 -7773632.851 18253391.728 10 0 59639 36900.00000 0 -13700685.845 -7869225.023 20047661.701 10 0 59639 37800.00000 0 -11159264.956 -8168116.063 21453361.812 10 0 59639 38700.00000 0 -8502902.389 -8685231.690 22443218.771 10 0 59639 39600.00000 0 -5800573.527 -9423315.936 22997996.711 10 0 59639 40500.00000 0 -3121498.175 -10372680.503 23106870.353 10 0 59639 41400.00000 0 -532486.537 -11511489.938 22767638.297 10 0 59639 42300.00000 0 1904607.796 -12806571.811 21986772.213 10 0 59639 43200.00000 0 4135223.359 -14214719.419 20779300.524 10 0 59639 44100.00000 0 6114118.848 -15684434.023 19168528.053 10 0 59639 45000.00000 0 7807010.060 -17158035.099 17185596.055 10 0 59639 45900.00000 0 9191748.179 -18574051.506 14868889.959 10 0 59639 46800.00000 0 10258990.592 -19869794.311 12263305.061 10 0 59639 47700.00000 0 11012336.353 -20984003.784 9419383.375 10 0 59639 48600.00000 0 11467920.776 -21859459.464 6392337.492 10 0 59639 49500.00000 0 11653486.329 -22445443.097 3240979.844 10 0 59639 50400.00000 0 11606969.160 -22699949.875 26578.107 10 0 59639 51300.00000 0 11374661.278 -22591553.657 -3188340.759 10 0 59639 52200.00000 0 11009026.675 -22100846.103 -6341214.010 10 0 59639 53100.00000 0 10566264.532 -21221387.622 -9370669.307 10 0 59639 54000.00000 0 10103723.739 -19960128.630 -12217728.747 10 0 59639 54900.00000 0 9677279.319 -18337282.171 -14826966.161 10 0 59639 55800.00000 0 9338783.065 -16385652.385 -17147594.085 10 0 59639 56700.00000 0 9133697.448 -14149446.402 -19134458.451 10 0 59639 57600.00000 0 9099013.879 -11682619.184 -20748921.125 10 0 59639 58500.00000 0 9261544.124 -9046820.653 -21959612.815 10 0 59639 59400.00000 0 9636657.581 -6309030.967 -22743041.830 10 0 59639 60300.00000 0 10227517.986 -3538982.806 -23084047.176 10 0 59639 61200.00000 0 11024851.825 -806478.223 -22976087.658 10 0 59639 62100.00000 0 12007258.109 1821288.322 -22421362.019 10 0 59639 63000.00000 0 13142046.310 4282289.777 -21430758.401 10 0 59639 63900.00000 0 14386566.950 6522003.215 -20023634.706 10 0 59639 64800.00000 0 15689978.653 8495427.328 -18227434.652 10 0 59639 65700.00000 0 16995377.206 10168697.982 -16077147.343 10 0 59639 66600.00000 0 18242196.934 11520236.042 -13614621.222 10 0 59639 67500.00000 0 19368783.374 12541381.404 -10887745.932 10 0 59639 68400.00000 0 20315029.075 13236488.667 -7949518.156 10 0 59639 69300.00000 0 21024961.697 13622482.314 -4857009.789 10 0 59639 70200.00000 0 21449175.690 13727891.999 -1670258.621 10 0 59639 71100.00000 0 21547005.391 13591410.119 1548896.836 10 0 59639 72000.00000 0 21288348.332 13260033.787 4738015.581 10 0 59639 72900.00000 0 20655062.213 12786870.569 7835262.152 10 0 59639 73800.00000 0 19641876.948 12228701.204 10780601.152 10 0 59639 74700.00000 0 18256783.451 11643402.460 13516955.221 10 0 59639 75600.00000 0 16520882.678 11087338.855 15991304.453 10 0 59639 76500.00000 0 14467700.810 10612832.985 18155706.538 10 0 59639 77400.00000 0 12141998.640 10265820.662 19968218.477 10 0 59639 78300.00000 0 9598123.938 10083789.168 21393702.869 10 0 59639 79200.00000 0 6897974.332 10094084.950 22404503.926 10 0 59639 80100.00000 0 4108654.202 10312661.722 22980980.815 10 0 59639 81000.00000 0 1299921.510 10743321.594 23111888.534 10 0 59639 81900.00000 0 -1458471.000 11377481.464 22794599.197 10 0 59639 82800.00000 0 -4099431.240 12194475.207 22035159.351 10 0 59639 83700.00000 0 -6561071.110 13162380.002 20848181.805 10 0 59639 84600.00000 0 -8789033.272 14239333.357 19256573.268 10 0 59639 85500.00000 0 -10738505.534 15375286.905 17291102.112 10 0 59640 0.00000 0 -12375839.576 16514124.478 14989813.620 10 0 59640 900.00000 0 -13679707.764 17596057.168 12397301.557 10 0 59640 1800.00000 0 -14641747.740 18560193.794 9563852.273 10 0 59640 2700.00000 0 -15266670.842 19347180.912 6544472.917 10 0 59640 3600.00000 0 -15571827.560 19901799.396 3397825.081 10 0 59640 4500.00000 0 -15586249.280 20175408.015 185083.315 10 0 59640 5400.00000 0 -15349206.819 20128129.713 -3031258.877 10 0 59640 6300.00000 0 -14908346.963 19730686.907 -6188611.776 10 0 59640 7200.00000 0 -14317486.415 18965806.800 -9225516.111 10 0 59640 8100.00000 0 -13634157.307 17829135.820 -12082848.768 10 0 59640 9000.00000 0 -12917009.135 16329623.158 -14704982.963 10 0 59640 9900.00000 0 -12223178.144 14489356.038 -17040879.200 10 0 59640 10800.00000 0 -11605736.472 12342852.643 -19045085.004 10 0 59640 11700.00000 0 -11111329.854 9935841.713 -20678623.415 10 0 59640 12600.00000 0 -10778104.385 7323579.595 -21909752.662 10 0 59640 13500.00000 0 -10634010.339 4568774.946 -22714582.328 10 0 59640 14400.00000 0 -10695554.730 1739207.678 -23077534.321 10 0 59640 15300.00000 0 -10967055.110 -1094858.544 -22991640.186 10 0 59640 16200.00000 0 -11440425.708 -3863362.620 -22458669.595 10 0 59640 17100.00000 0 -12095504.423 -6499119.686 -21489088.145 10 0 59640 18000.00000 0 -12900906.353 -8940371.346 -20101845.905 10 0 59640 18900.00000 0 -13815367.339 -11133107.214 -18324001.326 10 0 59640 19800.00000 0 -14789520.487 -13033062.244 -16190188.228 10 0 59640 20700.00000 0 -15768030.387 -14607307.924 -13741936.562 10 0 59640 21600.00000 0 -16691994.862 -15835372.585 -11026860.375 10 0 59640 22500.00000 0 -17501512.851 -16709845.793 -8097728.913 10 0 59640 23400.00000 0 -18138310.117 -17236443.268 -5011439.119 10 0 59640 24300.00000 0 -18548312.115 -17433531.502 -1827909.615 10 0 59640 25200.00000 0 -18684055.635 -17331133.671 1391082.250 10 0 59640 26100.00000 0 -18506837.681 -16969460.113 4583097.527 10 0 59640 27000.00000 0 -17988511.159 -16397026.438 7686243.744 10 0 59640 27900.00000 0 -17112851.809 -15668439.354 10640370.590 10 0 59640 28800.00000 0 -15876438.818 -14841944.015 13388230.148 10 0 59640 29700.00000 0 -14289011.917 -13976836.350 15876579.632 10 0 59640 30600.00000 0 -12373289.475 -13130849.191 18057205.814 10 0 59640 31500.00000 0 -10164254.571 -12357621.813 19887851.941 10 0 59640 32400.00000 0 -7707937.889 -11704358.760 21333030.015 10 0 59640 33300.00000 0 -5059746.956 -11209775.741 22364703.510 10 0 59640 34200.00000 0 -2282409.940 -10902418.342 22962827.966 10 0 59640 35100.00000 0 556382.113 -10799423.759 23115739.574 10 0 59640 36000.00000 0 3386538.350 -10905777.391 22820384.460 10 0 59640 36900.00000 0 6138231.646 -11214095.717 22082384.158 10 0 59640 37800.00000 0 8744553.626 -11704945.054 20915935.593 10 0 59640 38700.00000 0 11144052.281 -12347683.646 19343546.757 10 0 59640 39600.00000 0 13283047.707 -13101792.680 17395612.182 10 0 59640 40500.00000 0 15117630.398 -13918641.354 15109835.271 10 0 59640 41400.00000 0 16615259.296 -14743612.717 12530507.432 10 0 59640 42300.00000 0 17755892.974 -15518501.471 9707656.937 10 0 59640 43200.00000 0 18532606.663 -16184083.100 6696083.105 10 0 59640 44100.00000 0 18951669.162 -16682745.848 3554293.974 10 0 59640 45000.00000 0 19032076.240 -16961073.953 343367.993 10 0 59640 45900.00000 0 18804560.248 -16972272.016 -2874237.940 10 0 59640 46800.00000 0 18310117.847 -16678326.795 -6035910.345 10 0 59640 47700.00000 0 17598118.428 -16051813.481 -9080106.207 10 0 59640 48600.00000 0 16724073.782 -15077268.528 -11947560.265 10 0 59640 49500.00000 0 15747164.119 -13752069.409 -14582448.006 10 0 59640 50400.00000 0 14727625.969 -12086782.751 -16933480.569 10 0 59640 51300.00000 0 13724113.299 -10104964.897 -18954909.465 10 0 59640 52200.00000 0 12791144.192 -7842422.260 -20607421.016 10 0 59640 53100.00000 0 11976741.529 -5345961.835 -21858902.744 10 0 59640 54000.00000 0 11320367.590 -2671683.707 -22685066.921 10 0 59640 54900.00000 0 10851239.722 117113.409 -23069919.408 10 0 59640 55800.00000 0 10587097.765 2952326.283 -23006065.170 10 0 59640 56700.00000 0 10533474.623 5763641.372 -22494845.127 10 0 59640 57600.00000 0 10683499.925 8481221.391 -21546302.310 10 0 59640 58500.00000 0 11018244.158 11038372.760 -20178978.610 10 0 59640 59400.00000 0 11507587.837 13374083.594 -18419546.555 10 0 59640 60300.00000 0 12111578.227 15435327.455 -16302283.710 10 0 59640 61200.00000 0 12782215.617 17179037.913 -13868400.237 10 0 59640 62100.00000 0 13465593.207 18573672.928 -11165232.955 10 0 59640 63000.00000 0 14104299.843 19600305.237 -8245321.676 10 0 59640 63900.00000 0 14639983.879 20253194.696 -5165386.053 10 0 59640 64800.00000 0 15015969.765 20539820.300 -1985222.891 10 0 59640 65700.00000 0 15179816.831 20480372.167 1233454.523 10 0 59640 66600.00000 0 15085712.288 20106726.212 4428212.377 10 0 59640 67500.00000 0 14696597.504 19460945.943 7537104.356 10 0 59640 68400.00000 0 13985937.942 18593375.274 10499868.403 10 0 59640 69300.00000 0 12939062.105 17560403.258 13259089.149 10 0 59640 70200.00000 0 11554012.988 16421995.036 15761303.893 10 0 59640 71100.00000 0 9841875.759 15239092.744 17958031.288 10 0 59640 72000.00000 0 7826567.307 14070995.270 19806703.412 10 0 59640 72900.00000 0 5544095.484 12972826.318 21271484.001 10 0 59640 73800.00000 0 3041317.663 11993196.282 22323957.828 10 0 59640 74700.00000 0 374248.998 11172155.277 22943678.492 10 0 59640 75600.00000 0 -2394010.951 10539522.414 23118564.654 10 0 59640 76500.00000 0 -5195648.800 10113660.821 22845137.259 10 0 59640 77400.00000 0 -7960708.357 9900749.508 22128593.104 10 0 59640 78300.00000 0 -10619757.043 9894582.597 20982712.955 10 0 59640 79200.00000 0 -13106538.429 10076904.665 19429605.222 10 0 59640 80100.00000 0 -15360501.804 10418268.672 17499289.175 10 0 59640 81000.00000 0 -17329104.381 10879381.140 15229124.624 10 0 59640 81900.00000 0 -18969790.756 11412878.715 12663097.840 10 0 59640 82800.00000 0 -20251567.097 11965461.921 9850976.511 10 0 59640 83700.00000 0 -21156104.189 12480296.499 6847349.206 10 0 59640 84600.00000 0 -21678322.856 12899581.001 3710567.344 10 0 59640 85500.00000 0 -21826436.843 13167171.769 501610.160 99